EW8328 Weather Reports


time (UTC)temp
C
wind
direction
speed
KPH
gust
KPH
rain 1hr
cm
rain 24hr
cm
rain mn
cm
humidity
%
barometer
mb
20260831234312 12 257 0.0 3.2 0.00 0.03 0.00 88 1015.9
20260831233813 12 257 1.6 3.2 0.00 0.03 0.00 88 1015.9
20260831233312 12 257 0.0 3.2 0.00 0.03 0.00 88 1015.9
20260831232812 12 257 0.0 3.2 0.00 0.03 0.00 88 1015.8
20260831232313 12 257 0.0 3.2 0.00 0.03 0.00 87 1015.8
20260831231313 12 257 1.6 4.8 0.00 0.05 0.00 87 1015.9
20260831230902 12 257 1.6 4.8 0.00 0.05 0.00 87 1015.9
20260831230312 12 277 1.6 4.8 0.00 0.05 0.00 87 1015.8
20260831225813 12 279 0.0 3.2 0.00 0.05 0.05 87 1015.8
20260831225313 12 279 0.0 3.2 0.00 0.05 0.05 86 1015.8
20260831224813 12 279 0.0 4.8 0.00 0.05 0.05 86 1015.9
20260831224312 12 262 3.2 4.8 0.00 0.05 0.05 86 1015.8
20260831223813 12 280 3.2 9.7 0.00 0.05 0.05 86 1015.8
20260831222813 12 230 3.2 4.8 0.00 0.05 0.05 84 1015.7
20260831222312 12 230 0.0 3.2 0.00 0.05 0.05 84 1015.7
20260831221814 12 230 1.6 4.8 0.00 0.05 0.05 84 1015.6
20260831221312 12 230 1.6 3.2 0.00 0.05 0.05 84 1015.5
20260831220313 13 258 1.6 8.0 0.00 0.05 0.05 84 1015.6
20260831215813 13 265 0.0 3.2 0.00 0.05 0.05 83 1015.6
20260831214312 13 271 4.8 9.7 0.00 0.05 0.05 82 1015.5
20260831213813 13 250 3.2 4.8 0.00 0.05 0.05 82 1015.4
20260831213312 13 275 1.6 4.8 0.00 0.05 0.05 82 1015.4
20260831212813 13 284 3.2 12.9 0.00 0.05 0.05 82 1015.4
20260831212312 13 257 4.8 8.0 0.00 0.05 0.05 82 1015.3
20260831211813 13 261 4.8 8.0 0.00 0.05 0.05 82 1015.3
20260831211312 13 249 3.2 9.7 0.00 0.05 0.05 82 1015.3
20260831210814 13 270 1.6 8.0 0.00 0.05 0.05 82 1015.2
20260831210312 13 270 6.4 12.9 0.00 0.05 0.05 81 1015.2
20260831205813 13 270 4.8 12.9 0.00 0.05 0.05 81 1015.1
20260831205312 13 248 4.8 19.3 0.00 0.05 0.05 81 1015.1
20260831204812 13 251 4.8 12.9 0.00 0.05 0.05 81 1015.0
20260831203812 13 243 8.0 14.5 0.00 0.05 0.05 80 1015.0
20260831203313 13 244 6.4 11.3 0.00 0.05 0.05 79 1015.0
20260831202812 13 257 6.4 12.9 0.00 0.05 0.05 79 1015.0
20260831202312 13 271 6.4 12.9 0.00 0.05 0.05 79 1014.9
20260831201813 13 261 4.8 12.9 0.00 0.05 0.05 79 1014.9
20260831201312 13 254 8.0 16.1 0.00 0.05 0.05 79 1014.8
20260831200814 13 245 6.4 14.5 0.00 0.05 0.05 79 1014.7
20260831200313 13 255 6.4 12.9 0.00 0.05 0.05 79 1014.7
20260831195312 13 254 9.7 19.3 0.00 0.05 0.05 78 1014.6
20260831194813 13 258 9.7 14.5 0.00 0.05 0.05 78 1014.5
20260831194313 13 243 11.3 24.1 0.00 0.05 0.05 78 1014.4
20260831193812 13 260 9.7 14.5 0.00 0.05 0.05 78 1014.3
20260831193313 13 274 8.0 14.5 0.00 0.05 0.05 78 1014.3
20260831192813 13 264 9.7 19.3 0.00 0.05 0.05 78 1014.2
20260831192312 13 258 8.0 16.1 0.00 0.05 0.05 78 1014.1
20260831191813 13 245 8.0 14.5 0.00 0.05 0.05 79 1014.0
20260831191312 14 252 11.3 19.3 0.00 0.05 0.05 78 1014.0
20260831190314 14 250 9.7 19.3 0.00 0.05 0.05 79 1013.9
20260831185812 14 253 8.0 14.5 0.00 0.05 0.05 79 1013.8
20260831185312 14 251 9.7 19.3 0.00 0.05 0.05 79 1013.7
20260831184812 14 253 8.0 19.3 0.00 0.05 0.05 78 1013.7
20260831183813 14 247 11.3 19.3 0.00 0.08 0.05 78 1013.6
20260831183312 14 250 11.3 19.3 0.00 0.15 0.05 77 1013.6
20260831182813 14 243 11.3 27.4 0.00 0.18 0.05 77 1013.5
20260831182312 14 257 9.7 19.3 0.00 0.20 0.05 77 1013.4
20260831181812 14 243 8.0 12.9 0.00 0.23 0.05 77 1013.4
20260831181313 14 259 9.7 19.3 0.00 0.25 0.05 76 1013.3
20260831180812 15 253 11.3 19.3 0.00 0.33 0.05 76 1013.2
20260831175812 15 253 9.7 25.7 0.00 0.51 0.05 76 1013.1
20260831175312 15 256 8.0 20.9 0.00 0.51 0.05 76 1013.0
20260831174813 15 247 11.3 19.3 0.00 0.51 0.05 75 1012.9
20260831173812 15 251 8.0 19.3 0.00 0.61 0.05 75 1012.8
20260831173312 15 254 14.5 29.0 0.00 0.61 0.05 75 1012.6
20260831172812 15 256 9.7 19.3 0.00 0.61 0.05 76 1012.6
20260831172313 15 253 8.0 24.1 0.00 0.61 0.05 76 1012.5
20260831171812 15 250 14.5 25.7 0.00 0.61 0.05 75 1012.5
20260831171313 15 252 9.7 20.9 0.00 0.61 0.05 76 1012.5
20260831170813 15 259 12.9 24.1 0.00 0.61 0.05 76 1012.5
20260831170313 15 254 8.0 14.5 0.00 0.61 0.05 76 1012.4
20260831165812 15 265 11.3 22.5 0.00 0.61 0.05 75 1012.4
20260831165312 15 251 11.3 25.7 0.00 0.61 0.05 76 1012.3
20260831164812 16 257 9.7 19.3 0.00 0.61 0.05 75 1012.3
20260831164312 16 250 11.3 22.5 0.00 0.61 0.05 76 1012.3
20260831163812 16 241 9.7 22.5 0.00 0.61 0.05 78 1012.2
20260831162812 16 254 9.7 16.1 0.00 0.61 0.05 79 1012.2
20260831161812 16 247 9.7 19.3 0.00 0.61 0.05 78 1012.2
20260831161312 16 244 9.7 19.3 0.00 0.61 0.05 78 1012.2
20260831160313 16 246 9.7 19.3 0.00 0.61 0.05 74 1012.1
20260831155813 17 249 8.0 22.5 0.00 0.61 0.05 73 1012.1
20260831155312 17 257 9.7 20.9 0.00 0.61 0.05 72 1011.9
20260831154813 17 249 9.7 20.9 0.00 0.61 0.05 70 1011.8
20260831154312 18 246 9.7 19.3 0.00 0.61 0.05 70 1011.7
20260831153812 17 254 8.0 22.5 0.00 0.61 0.05 71 1011.7
20260831153312 17 242 11.3 25.7 0.00 0.61 0.05 71 1011.6
20260831152812 17 241 9.7 20.9 0.00 0.61 0.05 73 1011.5
20260831152313 17 243 9.7 25.7 0.00 0.61 0.05 74 1011.4
20260831151812 17 251 9.7 25.7 0.00 0.61 0.05 73 1011.3
20260831151312 17 259 8.0 22.5 0.00 0.61 0.05 75 1011.1
20260831150812 17 255 8.0 20.9 0.00 0.61 0.05 74 1011.2
20260831150312 18 250 11.3 22.5 0.00 0.61 0.05 73 1011.1
20260831145812 17 275 12.9 29.0 0.00 0.61 0.05 72 1011.1
20260831145312 17 281 8.0 24.1 0.00 0.61 0.05 74 1010.9
20260831143812 18 239 11.3 29.0 0.00 0.61 0.05 73 1010.8
20260831143314 18 248 11.3 22.5 0.00 0.64 0.05 73 1010.7
20260831142812 18 246 11.3 22.5 0.00 0.66 0.05 74 1010.7
20260831142313 18 259 9.7 20.9 0.00 0.66 0.05 73 1010.6
20260831141812 18 268 9.7 22.5 0.00 0.66 0.05 71 1010.5
20260831141312 18 243 12.9 22.5 0.00 0.66 0.05 71 1010.4
20260831140813 18 267 14.5 24.1 0.00 0.66 0.05 70 1010.3
20260831135812 18 258 9.7 19.3 0.00 0.66 0.05 72 1010.3
20260831135311 18 272 11.3 20.9 0.00 0.66 0.05 72 1010.3
20260831134312 18 251 9.7 22.5 0.00 0.66 0.05 73 1010.1
20260831133812 18 248 11.3 29.0 0.00 0.66 0.05 71 1010.0
20260831133312 18 253 9.7 20.9 0.00 0.66 0.05 73 1009.8
20260831132813 18 274 11.3 20.9 0.00 0.66 0.05 73 1009.7
20260831131813 18 257 9.7 25.7 0.00 0.66 0.05 74 1009.6
20260831131312 18 265 8.0 16.1 0.00 0.66 0.05 74 1009.7
20260831130812 18 251 9.7 19.3 0.00 0.66 0.05 75 1009.6
20260831130311 18 263 6.4 12.9 0.00 0.66 0.05 76 1009.5
20260831125813 18 252 4.8 16.1 0.00 0.66 0.05 74 1009.5
20260831125312 18 243 9.7 19.3 0.00 0.66 0.05 75 1009.4
20260831124813 18 253 9.7 22.5 0.00 0.66 0.05 77 1009.3
20260831124312 18 248 12.9 20.9 0.00 0.66 0.05 74 1009.2
20260831123312 18 247 9.7 22.5 0.00 0.66 0.05 75 1009.0
20260831122312 18 248 9.7 19.3 0.00 0.66 0.05 75 1008.8
20260831121811 18 253 11.3 27.4 0.00 0.66 0.05 75 1008.8
20260831121313 18 249 9.7 19.3 0.00 0.66 0.05 76 1008.7
20260831120812 18 252 11.3 25.7 0.00 0.66 0.05 76 1008.6
20260831120312 18 239 8.0 20.9 0.00 0.66 0.05 78 1008.6
20260831115312 18 285 6.4 24.1 0.00 0.66 0.05 79 1008.4
20260831114812 18 247 9.7 19.3 0.00 0.66 0.05 77 1008.3
20260831114312 18 254 9.7 20.9 0.00 0.66 0.05 77 1008.2
20260831113813 19 241 9.7 19.3 0.00 0.66 0.05 77 1008.0
20260831113312 18 246 8.0 19.3 0.00 0.66 0.05 81 1007.9
20260831112812 17 241 9.7 19.3 0.00 0.66 0.05 82 1008.0
20260831112311 18 250 9.7 19.3 0.00 0.66 0.05 79 1007.9
20260831111812 18 259 8.0 19.3 0.00 0.66 0.05 77 1007.7
20260831110812 18 248 9.7 19.3 0.00 0.66 0.05 77 1007.5
20260831105812 18 251 3.2 11.3 0.00 0.66 0.05 83 1007.4
20260831105311 17 281 4.8 14.5 0.00 0.66 0.05 80 1007.4
20260831104813 17 273 3.2 9.7 0.00 0.66 0.05 83 1007.2
20260831104312 17 272 3.2 11.3 0.00 0.66 0.05 83 1007.2
20260831103812 17 240 3.2 8.0 0.00 0.66 0.05 84 1007.2
20260831103313 17 276 1.6 8.0 0.00 0.66 0.05 85 1007.1
20260831102812 17 322 1.6 4.8 0.00 0.66 0.05 85 1007.1
20260831102313 17 306 1.6 4.8 0.00 0.66 0.05 84 1007.1
20260831101812 17 283 3.2 11.3 0.00 0.66 0.05 83 1007.0
20260831101312 17 280 4.8 9.7 0.00 0.66 0.05 84 1007.0
20260831100812 17 248 4.8 12.9 0.00 0.66 0.05 84 1007.0
20260831095812 17 254 4.8 16.1 0.00 0.66 0.05 83 1006.9
20260831095312 17 298 3.2 19.3 0.00 0.66 0.05 84 1006.9
20260831094312 17 321 3.2 8.0 0.00 0.66 0.05 84 1006.7
20260831093812 17 279 1.6 4.8 0.00 0.66 0.05 85 1006.7
20260831093312 17 315 1.6 4.8 0.00 0.66 0.05 86 1006.6
20260831092812 17 262 4.8 11.3 0.00 0.66 0.05 86 1006.5
20260831092312 16 248 1.6 9.7 0.00 0.66 0.05 87 1006.4
20260831090812 16 256 3.2 11.3 0.00 0.66 0.05 88 1006.3
20260831090313 16 250 3.2 9.7 0.00 0.66 0.05 88 1006.2
20260831085813 16 269 4.8 12.9 0.00 0.66 0.05 87 1006.2
20260831085312 16 250 3.2 14.5 0.00 0.66 0.05 89 1006.1
20260831084812 16 297 1.6 8.0 0.00 0.66 0.05 90 1006.0
20260831084312 15 263 1.6 11.3 0.00 0.66 0.05 90 1006.0
20260831083812 15 263 3.2 9.7 0.00 0.66 0.05 91 1005.8
20260831083311 15 245 4.8 9.7 0.00 0.66 0.05 90 1005.8
20260831082812 15 254 6.4 11.3 0.00 0.66 0.05 91 1005.7
20260831082312 15 242 3.2 8.0 0.00 0.66 0.05 92 1005.7
20260831081311 15 252 4.8 11.3 0.00 0.66 0.05 92 1005.4
20260831080811 15 248 3.2 9.7 0.00 0.66 0.05 94 1005.3
20260831080311 15 255 4.8 11.3 0.00 0.66 0.05 93 1005.2
20260831075812 14 267 1.6 8.0 0.00 0.66 0.05 94 1005.2
20260831075312 14 254 1.6 8.0 0.00 0.66 0.05 95 1005.1
20260831074812 14 289 1.6 9.7 0.00 0.66 0.05 95 1005.1
20260831074312 14 300 1.6 9.7 0.00 0.66 0.05 95 1005.0
20260831073812 14 268 1.6 8.0 0.00 0.66 0.05 96 1004.9
20260831073312 14 258 3.2 9.7 0.00 0.66 0.05 95 1004.8
20260831072812 14 273 3.2 4.8 0.00 0.66 0.05 95 1004.8
20260831072312 14 246 1.6 4.8 0.00 0.66 0.05 96 1004.7
20260831071812 13 286 3.2 9.7 0.00 0.66 0.05 96 1004.7
20260831071311 13 256 3.2 8.0 0.00 0.66 0.05 96 1004.6
20260831070812 13 247 3.2 9.7 0.00 0.66 0.05 96 1004.5
20260831070311 13 325 3.2 4.8 0.00 0.66 0.05 96 1004.5
20260831065812 13 288 1.6 4.8 0.00 0.66 0.05 96 1004.4
20260831065311 13 300 1.6 4.8 0.00 0.66 0.05 96 1004.3
20260831064812 13 270 3.2 4.8 0.00 0.66 0.05 96 1004.3
20260831064312 13 282 1.6 4.8 0.00 0.66 0.05 96 1004.2
20260831063812 13 260 1.6 4.8 0.00 0.66 0.05 96 1004.2
20260831063313 13 302 3.2 12.9 0.00 0.66 0.05 96 1004.1
20260831062811 13 276 3.2 9.7 0.00 0.66 0.05 96 1003.9
20260831062312 13 256 4.8 11.3 0.00 0.66 0.05 96 1003.9
20260831061812 13 275 3.2 11.3 0.00 0.66 0.05 96 1003.8
20260831061312 13 258 3.2 8.0 0.00 0.66 0.05 96 1003.7
20260831060812 13 262 4.8 9.7 0.00 0.66 0.05 96 1003.6
20260831055813 13 252 1.6 4.8 0.00 0.66 0.05 96 1003.5
20260831055311 13 252 3.2 8.0 0.00 0.66 0.05 96 1003.4
20260831054812 13 246 3.2 8.0 0.00 0.66 0.05 96 1003.3
20260831054312 13 232 1.6 4.8 0.00 0.66 0.05 96 1003.2
20260831053312 13 225 1.6 4.8 0.00 0.66 0.05 96 1003.1
20260831051811 13 254 3.2 8.0 0.00 0.66 0.05 96 1002.9
20260831051311 13 257 1.6 4.8 0.00 0.66 0.05 96 1002.8
20260831050812 13 244 3.2 4.8 0.00 0.66 0.05 96 1002.6
20260831050311 13 256 3.2 8.0 0.00 0.66 0.05 96 1002.6
20260831045811 13 235 1.6 4.8 0.00 0.66 0.05 96 1002.5
20260831045312 13 236 3.2 8.0 0.00 0.66 0.05 96 1002.5
20260831044812 13 245 3.2 8.0 0.00 0.66 0.05 96 1002.4
20260831044312 13 250 1.6 9.7 0.00 0.71 0.05 96 1002.4
20260831043811 13 242 1.6 8.0 0.00 0.71 0.05 96 1002.3
20260831043311 13 270 1.6 9.7 0.00 0.81 0.05 96 1002.3
20260831042811 13 266 1.6 3.2 0.00 0.86 0.05 96 1002.2
20260831042312 13 277 1.6 4.8 0.00 0.94 0.05 96 1002.3
20260831041811 13 239 3.2 4.8 0.00 0.99 0.05 96 1002.3
20260831041311 13 249 3.2 4.8 0.00 0.99 0.05 96 1002.3
20260831040812 13 303 1.6 4.8 0.00 1.07 0.05 96 1002.3
20260831040312 13 232 1.6 4.8 0.00 1.09 0.05 96 1002.2
20260831035811 13 257 3.2 4.8 0.00 1.09 0.05 96 1002.2
20260831035311 13 249 1.6 4.8 0.00 1.09 0.05 96 1002.1
20260831034812 13 239 1.6 4.8 0.00 1.12 0.05 96 1002.1
20260831034311 13 81 1.6 4.8 0.00 1.12 0.05 96 1002.1
20260831033811 13 81 0.0 3.2 0.00 1.14 0.05 96 1002.0
20260831032812 13 81 1.6 1.6 0.00 1.17 0.05 96 1002.0
20260831032311 13 81 1.6 3.2 0.00 1.17 0.05 96 1001.9
20260831031811 13 81 1.6 3.2 0.00 1.17 0.05 96 1001.9
20260831031312 13 81 1.6 4.8 0.00 1.17 0.05 96 1001.9
20260831030811 13 81 0.0 3.2 0.00 1.17 0.05 96 1001.8
20260831030311 13 81 0.0 1.6 0.00 1.17 0.05 96 1001.7
20260831025811 13 81 0.0 0.0 0.00 1.17 0.05 96 1001.7
20260831025311 13 81 0.0 1.6 0.00 1.17 0.05 96 1001.7
20260831024812 13 81 1.6 1.6 0.00 1.17 0.05 96 1001.7
20260831024311 13 81 0.0 3.2 0.00 1.17 0.05 96 1001.6
20260831023812 13 81 0.0 1.6 0.00 1.17 0.05 96 1001.6
20260831022812 13 81 0.0 0.0 0.00 1.17 0.05 96 1001.5
20260831022311 13 81 0.0 0.0 0.00 1.17 0.05 96 1001.5
20260831021812 13 81 0.0 0.0 0.00 1.17 0.05 96 1001.5
20260831021311 13 81 0.0 0.0 0.00 1.17 0.05 96 1001.5
20260831020813 13 81 0.0 0.0 0.00 1.17 0.05 96 1001.4
20260831020311 13 81 0.0 0.0 0.00 1.17 0.05 96 1001.4
20260831015312 13 81 0.0 1.6 0.00 1.17 0.05 96 1001.3
20260831014811 13 81 1.6 1.6 0.00 1.17 0.05 96 1001.3
20260831014311 13 81 0.0 1.6 0.00 1.17 0.05 96 1001.3
20260831013811 13 81 0.0 0.0 0.00 1.17 0.05 96 1001.3
20260831013311 13 81 0.0 0.0 0.00 1.17 0.05 96 1001.2
20260831012812 13 81 0.0 1.6 0.00 1.17 0.05 96 1001.3
20260831012311 13 81 0.0 3.2 0.00 1.17 0.05 96 1001.3
20260831011811 13 81 0.0 1.6 0.00 1.17 0.05 96 1001.4
20260831011311 13 81 0.0 3.2 0.00 1.17 0.05 96 1001.4
20260831010812 13 81 1.6 3.2 0.03 1.17 0.05 96 1001.4
20260831010311 13 81 0.0 1.6 0.03 1.17 0.05 96 1001.4
20260831005811 13 81 0.0 0.0 0.03 1.17 0.05 96 1001.4
20260831005311 13 81 0.0 0.0 0.03 1.17 0.05 96 1001.4
20260831004811 13 81 0.0 3.2 0.03 1.17 0.05 96 1001.5
20260831004311 13 81 1.6 3.2 0.03 1.17 0.05 96 1001.5
20260831003811 13 81 0.0 0.0 0.03 1.17 0.05 96 1001.5
20260831003311 13 81 0.0 1.6 0.03 1.17 0.05 96 1001.5
20260831002813 13 81 1.6 1.6 0.03 1.17 0.05 96 1001.4
20260831002311 13 81 0.0 1.6 0.03 1.17 0.05 95 1001.3
20260831001811 13 81 0.0 0.0 0.03 1.17 0.05 96 1001.3
20260831001311 13 81 1.6 27.4 0.05 1.17 0.05 96 1001.3
20260831000311 13 81 0.0 1.6 0.03 1.14 0.03 95 1001.2
20260830235811 13 81 1.6 3.2 0.03 1.14 0.03 95 1001.2
20260830235311 13 81 0.0 1.6 0.03 1.14 0.03 95 1001.2
20260830234812 13 81 1.6 3.2 0.03 1.14 0.03 95 1001.3